Location: Luddesdown
(51.3667°N, 0.4000°E)
Time: 21:06:26
(UTC+00:00)

Daily predictions for brighter satellites

Satellite Brightness Start Highest point End
(mag) Time Altitude Azimuth Time Altitude Azimuth Time Altitude Azimuth
Exosat Rocket 4.2 18:36:28 10° S 18:41:24 44° ESE 18:47:37 10° NE
Meteor 1-11 Rocket 4.1 18:38:59 10° SSW 18:44:54 77° WNW 18:50:43 10° N
USA 186 2.8 18:42:45 10° SE 18:45:21 25° ENE 18:48:01 10° N
Meteor 1-21 4.3 18:41:53 10° N 18:47:26 58° ENE 18:52:59 10° SSE
Okean 3 3.5 18:43:23 10° N 18:47:35 64° ENE 18:51:47 10° SSE
COSMO-SKYMED 1 3.6 18:45:13 10° N 18:49:28 53° WNW 18:53:41 10° SW
USA 229 DEB 4.2 18:44:39 10° WSW 18:50:57 62° NW 18:57:55 10° NE
USA 229 4.2 18:44:44 10° WSW 18:51:03 62° NW 18:58:01 10° NE
Cosmos 1707 2.6 18:48:54 10° N 18:52:43 79° E 18:56:30 10° SSE
Cosmos 2322 3.8 18:47:49 10° NNW 18:53:32 90° ESE 18:59:12 10° SSE
Okean 1-7 3.0 18:49:47 10° N 18:54:10 74° ENE 18:58:31 10° SSE
Cosmos 1954 Rocket 4.1 18:49:28 10° NNW 18:54:45 84° WSW 19:00:01 10° SSE
CZ-4B R/B 3.4 18:49:08 10° SSE 18:54:48 90° W 19:00:29 10° NNW
Cosmos 1727 Rocket 4.0 18:49:53 10° S 18:56:13 82° E 19:02:31 10° NNE
Cosmos 1674 2.6 18:53:24 10° N 18:57:07 71° ENE 19:00:50 10° SSE
Cosmos 1980 4.3 18:53:21 10° NNW 18:58:44 41° NE 19:04:05 10° ESE
Cosmos 1805 4.5 18:56:12 10° SE 18:59:05 21° E 19:02:00 10° NE
Cosmos 2219 Rocket 2.6 18:54:28 10° NW 19:00:09 68° WSW 19:05:46 10° SSE
Cosmos 2333 Rocket 3.4 18:56:32 10° NW 19:02:03 47° WSW 19:07:31 10° S
Cosmos 1933 Rocket 3.6 18:59:03 10° S 19:03:17 57° E 19:07:34 10° NNE
Cosmos 1975 3.1 18:59:37 10° SSE 19:03:22 44° E 19:07:11 10° NNE
SJ-6B 2.9 19:00:21 10° SSE 19:04:11 55° ENE 19:07:57 10° N
CZ-4C R/B 4.1 19:00:45 10° N 19:04:26 55° WNW 19:08:16 10° SSW
Cosmos 2233 Rocket 4.5 19:01:07 10° N 19:06:50 39° ENE 19:12:34 10° SE
Meteor 2-9 Rocket 4.2 19:01:55 10° S 19:07:26 89° E 19:12:50 10° NNE
Cosmos 1726 3.1 19:05:40 10° SE 19:08:29 23° E 19:11:20 10° NE
CSL-04 Debris 4.3 19:04:28 10° SSE 19:09:47 60° ENE 19:15:09 10° N
BREEZE-M DEB (TANK) 4.2 19:06:47 10° W 19:10:44 21° SW 19:12:56 10° S
Cosmos 2061 Rocket 4.3 19:04:48 10° N 19:11:07 53° ENE 19:17:22 10° SSE
USA 267 4.4 19:05:28 10° SSE 19:11:35 41° SW 19:17:45 10° WNW
Cosmos 1869 Rocket 4.0 19:08:57 10° SSE 19:12:58 39° E 19:17:00 10° NNE
COSMOS 2428 2.8 19:07:31 10° NNW 19:13:17 84° WSW 19:19:01 10° SSE
Cosmos 1900 4.5 19:08:34 10° SSW 19:13:21 51° ESE 19:18:07 10° NE
SL-14 R/B 3.8 19:12:01 10° N 19:15:38 38° ENE 19:19:14 10° SE
Cosmos 1459 Rocket 4.0 19:12:19 10° N 19:18:24 85° W 19:24:29 10° S
USA 281 3.4 19:13:59 10° NNE 19:20:35 79° WNW 19:27:09 10° SW
NOSS 3-2 (A) 4.2 19:13:28 10° NW 19:20:47 81° SW 19:29:22 10° SE
Cosmos 2297 Rocket 3.2 19:16:49 10° SSE 19:21:10 23° ESE 19:25:33 10° NE
ATLAS 3B R/B 4.2 19:15:07 10° WNW 19:21:28 32° N 19:28:08 10° NE
Cosmos 1867 4.3 19:19:45 10° S 19:24:27 31° ESE 19:29:11 10° NE
IGS 5A 3.9 19:23:12 10° S 19:27:16 63° WSW 19:31:24 10° NNW
Cosmos 1725 Rocket 3.9 19:22:04 10° N 19:28:16 75° ENE 19:34:28 10° SSE
MINOTAUR 4 R/B 4.1 19:25:47 10° NNE 19:29:13 79° WNW 19:32:38 10° SSW
Resurs 01 Rocket 2.2 19:25:55 14° SE 19:29:20 38° ENE 19:33:26 10° N
CZ-4C R/B 3.7 19:24:45 10° NW 19:30:39 37° NNE 19:36:50 13° E
Cosmos 1371 Rocket 4.4 19:25:39 10° SSW 19:30:55 70° WNW 19:36:10 10° NNE
CENTAUR R/B 3.5 19:23:11 10° NW 19:31:15 72° SW 19:40:13 10° SSE
NOSS 3-2 (C) 4.0 19:24:06 10° NW 19:31:21 79° NE 19:38:47 14° SE
Cosmos 1626 3.7 19:28:42 10° NNW 19:31:59 35° W 19:35:16 10° SSW
Cosmos 1733 3.1 19:29:20 10° S 19:33:01 57° E 19:36:45 10° NNE
Landsat 7 3.8 19:29:26 10° SSE 19:34:09 89° WSW 19:38:54 10° NNW
Cosmos 1271 Rocket 4.4 19:36:59 16° ENE 19:36:59 16° ENE 19:38:31 10° NE
Cosmos 1703 Rocket 4.5 19:32:05 10° NNW 19:36:26 52° W 19:40:44 10° S
Cosmos 2227 Rocket 3.4 19:35:02 16° SE 19:37:05 20° E 19:41:01 10° NE
CZ-4 R/B 2.9 19:34:44 10° SSW 19:38:17 37° W 19:41:56 10° NNW
Cosmos 2056 Rocket 4.0 19:34:15 10° SW 19:39:19 63° WNW 19:44:25 10° NNE
Iridium 4 Rocket 2.8 19:37:53 10° N 19:42:07 82° E 19:46:16 10° S
Cosmos 192 4.3 19:38:03 10° S 19:42:56 61° ESE 19:47:50 10° NNE
Cosmos 2098 Rocket 3.8 19:37:48 10° S 19:43:15 84° E 19:49:52 10° N
Terra 3.6 19:42:45 14° ENE 19:43:54 15° NE 19:46:30 10° NNE
Cosmos 1802 Rocket 4.3 19:38:31 10° NNW 19:44:44 71° W 19:51:01 10° S
Geosat 4.0 19:40:51 16° SE 19:44:55 77° NE 19:49:58 10° NNW
USA 238 DEB 3.9 19:37:47 10° NW 19:45:01 78° NE 19:50:50 19° SE
USA 238 3.9 19:37:53 10° NW 19:45:07 77° NE 19:50:55 19° SE
Resurs 1-3 3.8 19:42:16 10° S 19:46:37 75° WSW 19:51:02 10° NNW
SL-16 R/B 3.1 19:41:31 10° NNW 19:46:42 34° NE 19:49:39 21° E
Cosmos 1674 Rocket 4.3 19:47:29 10° N 19:51:27 33° ENE 19:52:41 28° ESE
Cosmos 1850 Rocket 4.1 19:46:58 10° NNW 19:52:19 79° WSW 19:57:17 12° SSE
Meteor 2-10 3.8 19:49:22 10° S 19:54:23 80° E 19:59:30 10° NNE
Cosmos 1733 Rocket 3.5 19:53:01 23° SE 19:55:09 38° E 19:59:10 10° NNE
Okean-O 2.7 19:52:26 10° SSE 19:56:53 81° WSW 20:01:20 10° NNW
Okean 2 3.7 19:53:45 10° NNW 19:57:47 68° W 20:01:50 10° S
Cosmos 2016 Rocket 4.3 19:51:59 10° NNW 19:58:02 67° W 20:04:06 10° S
NOSS 0 Rocket 4.3 19:53:07 10° NW 19:59:14 63° WSW 20:05:06 11° SSE
CARTOSAT-1 3.8 19:58:45 30° SE 20:00:26 47° ENE 20:04:35 10° N
SPOT 1/Viking Rocket 3.5 19:55:58 13° SSE 20:00:37 84° ENE 20:05:52 10° NNW
Cosmos 1110 Rocket 4.0 19:56:45 10° S 20:01:50 56° ESE 20:06:54 10° NNE
Cosmos 1378 Rocket 4.0 19:58:32 10° N 20:02:45 43° ENE 20:04:03 34° ESE
SPOT 5 3.8 20:02:23 26° E 20:03:25 28° ENE 20:07:32 10° N
Cosmos 2123 Rocket 4.2 19:57:33 10° SSW 20:03:51 76° W 20:10:14 10° N
Cosmos 2221 Rocket 3.8 19:59:30 10° N 20:03:52 50° ENE 20:05:25 34° SE
Okean O Rocket 3.7 20:01:34 10° SSW 20:05:22 28° W 20:09:11 10° NW
Helios 1B 4.5 20:01:29 10° NNE 20:05:51 85° ESE 20:10:10 10° SSW
BREEZE-M DEB (TANK) 2.7 20:01:53 10° W 20:07:39 62° SSW 20:08:22 46° SE
ISS -3.8 20:04:39 10° W 20:08:01 83° N 20:08:42 54° E
GEOS 3 Rocket 4.2 20:03:06 10° NE 20:08:25 62° NW 20:13:44 10° WSW
CSL-04 Rocket 4.5 20:08:17 10° S 20:13:41 53° W 20:19:08 10° NNW
Cosmos 1447 Rocket 4.4 20:10:39 10° S 20:16:48 66° E 20:22:55 10° NNE
Cosmos 1452 Rocket 3.5 20:11:35 10° SSW 20:16:52 88° WNW 20:22:12 10° NNE
USA 215 3.7 20:10:32 10° ENE 20:16:56 60° NNW 20:23:20 10° W
USA 186 4.2 20:14:58 10° SSW 20:17:27 21° W 20:19:55 10° NW
ADEOS Rocket 3.9 20:15:26 28° E 20:17:54 37° ENE 20:24:14 10° N
Cosmos 1766 3.0 20:17:37 47° SSE 20:18:31 65° E 20:22:17 10° NNE
Cosmos 1331 Rocket 3.8 20:13:40 10° SSW 20:18:47 70° ESE 20:23:56 10° NNE
Cosmos 2237 Rocket 2.5 20:16:04 10° NW 20:21:41 66° WSW 20:25:11 23° S
H-2A R/B 2.8 20:23:55 46° E 20:24:32 49° ENE 20:28:51 10° N
Meteor 1-15 Rocket 4.5 20:24:43 35° SE 20:26:40 47° E 20:32:17 10° NNE
MetOp-B 4.1 20:29:53 39° SE 20:31:55 74° ENE 20:37:17 10° NNW
ATLAS CENTAUR R/B 4.1 20:17:01 10° SW 20:32:53 80° SE 20:40:05 10° ENE
Cosmos 968 Rocket 3.5 20:30:21 10° NNW 20:35:33 80° WSW 20:37:26 40° SSE
Lacrosse 5 rocket 2.5 20:32:06 10° SW 20:34:34 31° SSW 20:34:34 31° SSW
SJ 16-02 2.4 20:32:29 10° N 20:36:14 30° NE 20:36:14 30° NE
Meteor 1-12 Rocket 4.2 20:38:17 37° SSE 20:40:30 62° E 20:46:08 10° NNE
Cosmos 1975 Rocket 4.5 20:37:02 10° N 20:39:54 25° NE 20:39:54 25° NE
FALCON 9 R/B 4.2 20:25:11 10° WSW 20:42:02 31° SSW 20:45:16 25° SSE
Cosmos 1726 4.0 20:39:55 10° SW 20:43:00 28° WNW 20:46:07 10° N
ERS-1 Rocket 3.2 20:44:49 49° E 20:45:10 50° ENE 20:50:01 10° N
Cosmos 1513 Rocket 4.3 20:39:24 10° N 20:45:31 79° E 20:47:45 42° SSE
Meteor 1-24 Rocket 3.8 20:39:47 10° N 20:45:41 68° ENE 20:47:15 49° SE
Meteor 2-15 4.3 20:43:40 10° N 20:49:52 79° ENE 20:51:48 46° SSE
BREEZE-M DEB (TANK) 3.0 20:43:30 10° WNW 20:49:59 70° SSW 20:50:42 58° SSE
Landsat 5 4.2 20:46:40 10° N 20:50:23 49° WNW 20:53:40 13° SW
Ariane Rocket 2.9 20:49:52 57° SSE 20:50:56 86° ENE 20:56:02 10° NNW
Meteor 2-8 Rocket 4.3 20:45:29 10° N 20:51:39 74° ENE 20:53:21 49° SSE
Spot 2 4.3 20:51:12 64° ESE 20:51:41 69° ENE 20:56:32 10° N
Cosmos 482 Debris 4.4 20:48:08 10° WNW 20:52:59 74° WSW 20:52:59 74° WSW
Cosmos 1943 4.1 20:48:40 10° NNW 20:53:44 33° NE 20:54:31 32° ENE
Meteor 2-15 Rocket 4.4 20:49:37 10° N 20:55:47 69° ENE 20:57:02 54° SE
Spot 2 Rocket 3.4 21:01:35 67° E 21:01:46 68° ENE 21:06:51 10° N
Cosmos 1302 Rocket 3.8 21:02:14 60° S 21:03:10 80° ESE 21:08:30 10° NNE
Cosmos 2297 Rocket 2.4 20:59:03 10° SW 21:04:42 71° WNW 21:10:22 10° NNE
Resurs 01 Rocket 3.4 21:03:27 18° SW 21:05:54 29° W 21:09:46 10° NNW
Cosmos 2034 Rocket 3.9 21:00:51 10° N 21:07:04 68° ENE 21:07:51 62° ESE
Cosmos 1867 4.0 21:02:21 10° SW 21:07:45 63° NW 21:13:12 10° NE
Cosmos 1271 Rocket 3.7 21:11:48 44° NW 21:11:48 44° NW 21:15:05 10° N
Cosmos 2219 3.3 21:13:55 58° ENE 21:13:55 58° ENE 21:18:35 10° NNE
Meteor 2-5 Rocket 3.9 21:07:18 10° NNW 21:13:06 73° W 21:14:30 52° SSW
SPOT 3 Rocket 3.4 21:12:40 75° S 21:13:06 84° WSW 21:18:23 10° NNW
ATLAS 3B R/B 3.9 21:07:18 10° NW 21:14:11 39° NNE 21:17:41 26° ENE
Cosmos 1470 4.0 21:15:43 37° N 21:15:43 37° N 21:18:13 10° N
deb Chang Zheng 4 4.4 21:16:08 40° N 21:16:08 40° N 21:18:40 10° NNW
CZ-4C R/B 2.9 21:13:11 10° NW 21:20:07 81° NE 21:21:59 57° ESE
Cosmos 2227 Rocket 2.1 21:14:46 10° SSW 21:20:27 83° WNW 21:26:10 10° NNE
Terra 2.0 21:21:29 65° N 21:21:29 65° N 21:25:34 10° NNW
Cosmos 1503 Rocket 4.3 21:22:14 10° NNW 21:26:52 58° NNE 21:26:52 58° NNE
SL-16 R/B 2.5 21:25:33 10° NW 21:31:09 58° WSW 21:31:32 57° SW
Cosmos 1486 Rocket 4.2 21:33:22 10° NNW 21:38:14 69° WNW 21:38:14 69° WNW
SPOT 5 3.7 21:41:34 44° W 21:41:34 44° W 21:45:56 10° NNW
ISS -0.5 21:41:29 10° W 21:41:38 11° W 21:41:38 11° W
H-2A R/B 4.2 21:50:21 10° NNE 21:51:45 20° NNE 21:51:45 20° NNE
Cosmos 2279 Rocket 4.4 21:51:10 10° N 21:56:22 51° NE 21:56:22 51° NE
USA 215 3.6 21:57:51 46° ENE 21:59:32 58° N 22:05:55 10° WNW
ADEOS Rocket 3.5 22:02:21 54° SW 22:03:06 57° W 22:10:01 10° NNW
Cosmos 2263 Rocket 3.8 22:13:19 24° NE 22:13:19 24° NE 22:15:29 10° NNE
SJ 16-02 3.4 22:10:54 10° NW 22:13:07 25° WNW 22:13:07 25° WNW
ATLAS 2AS CENTAUR R/B 4.4 22:29:01 22° ENE 22:29:01 22° ENE 22:31:28 10° NE
Cosmos 1634 Rocket 4.5 22:27:39 10° NNW 22:33:09 56° WNW 22:33:09 56° WNW
Cosmos 1943 4.3 22:32:35 10° NW 22:36:19 40° NW 22:36:19 40° NW
NOSS 3-4 (A) 4.1 22:42:49 50° NNW 22:42:49 50° NNW 22:49:02 10° NE
NOSS 3-4 (C) 4.1 22:43:06 50° NNW 22:43:06 50° NNW 22:49:08 10° NE
ATLAS CENTAUR R/B 3.8 22:37:11 10° W 22:48:21 57° NNW 22:49:44 48° NNE
Terra 4.4 23:00:13 14° WNW 23:00:13 14° WNW 23:01:50 10° NW
Cosmos 2082 Rocket 4.5 22:57:34 10° N 23:01:05 16° NNE 23:02:28 15° NE
NOSS 3-1 (A) 4.5 22:56:21 10° NW 23:02:58 50° NNE 23:03:39 48° NE
Cosmos 2227 Rocket 4.3 23:00:57 10° W 23:05:23 23° NW 23:09:49 10° NNE
ATLAS 3B R/B 3.1 22:58:19 10° NW 23:04:56 70° NNW 23:04:56 70° NNW
CZ-4C R/B 4.0 23:01:58 10° NW 23:07:09 33° W 23:07:09 33° W
Cosmos 1833 Rocket 4.3 23:09:02 10° NNW 23:12:54 29° NNE 23:12:54 29° NNE
Cosmos 2344 4.0 23:10:13 10° NW 23:18:42 82° SW 23:18:50 82° SW
USA 215 4.2 23:45:10 38° WNW 23:45:10 38° WNW 23:48:57 10° WNW
NOSS 3-1 (C) 4.4 23:43:04 10° NW 23:48:11 54° NW 23:48:11 54° NW
Cosmos 2263 Rocket 3.9 23:54:56 27° NNW 23:54:56 27° NNW 23:59:08 10° NNE
